| time (UTC) | temp F | wind direction | speed knots | gust knots | rain 1hr in | rain 24hr in | rain mn in | humidity % | barometer mb |
| 20260507151129 | 46 | 71 | 2.6 | 4.3 | 0.00 | 0.00 | 0.00 | 96 | 1013.2 |
| 20260507150624 | 46 | 120 | 0.9 | 2.6 | 0.00 | 0.00 | 0.00 | 97 | 1013.2 |
| 20260507150126 | 46 | 141 | 1.7 | 4.3 | 0.00 | 0.00 | 0.00 | 97 | 1013.1 |
| 20260507145623 | 46 | 72 | 3.5 | 4.3 | 0.00 | 0.00 | 0.00 | 97 | 1013.2 |
| 20260507145124 | 46 | 100 | 1.7 | 3.5 | 0.00 | 0.00 | 0.00 | 97 | 1013.3 |
| 20260507144622 | 46 | 75 | 1.7 | 3.5 | 0.00 | 0.00 | 0.00 | 97 | 1013.1 |
| 20260507144123 | 46 | 80 | 1.7 | 3.5 | 0.00 | 0.00 | 0.00 | 97 | 1013.1 |
| 20260507143621 | 46 | 169 | 0.0 | 3.5 | 0.00 | 0.00 | 0.00 | 97 | 1013.1 |
| 20260507142620 | 46 | 94 | 0.0 | 3.5 | 0.00 | 0.00 | 0.00 | 97 | 1013.0 |
| 20260507142346 | 46 | 353 | 1.7 | 3.5 | 0.00 | 0.00 | 0.00 | 97 | 1013.0 |
| 20260507141619 | 46 | 98 | 0.9 | 3.5 | 0.00 | 0.00 | 0.00 | 97 | 1012.8 |
| 20260507141121 | 46 | 322 | 2.6 | 2.6 | 0.00 | 0.00 | 0.00 | 97 | 1013.0 |
| 20260507140618 | 46 | 81 | 1.7 | 2.6 | 0.00 | 0.00 | 0.00 | 97 | 1012.9 |
| 20260507140121 | 46 | 138 | 0.0 | 3.5 | 0.00 | 0.00 | 0.00 | 97 | 1012.8 |
| 20260507135841 | 46 | 128 | 1.7 | 4.3 | 0.00 | 0.00 | 0.00 | 97 | 1012.7 |
| 20260507135342 | 46 | 160 | 0.9 | 5.2 | 0.00 | 0.00 | 0.00 | 97 | 1012.9 |
| 20260507134616 | 46 | 252 | 0.0 | 5.2 | 0.00 | 0.00 | 0.00 | 96 | 1012.9 |
| 20260507134118 | 46 | 60 | 4.3 | 4.3 | 0.00 | 0.00 | 0.00 | 97 | 1012.8 |
| 20260507133835 | 46 | 134 | 1.7 | 2.6 | 0.00 | 0.00 | 0.00 | 97 | 1012.7 |
| 20260507133118 | 46 | 123 | 0.0 | 4.3 | 0.00 | 0.00 | 0.00 | 97 | 1012.6 |
| 20260507132613 | 46 | 336 | 1.7 | 4.3 | 0.00 | 0.00 | 0.00 | 97 | 1012.5 |
| 20260507132118 | 46 | 154 | 0.0 | 3.5 | 0.00 | 0.00 | 0.00 | 97 | 1012.5 |
| 20260507131116 | 47 | 106 | 1.7 | 3.5 | 0.00 | 0.00 | 0.00 | 96 | 1012.4 |
| 20260507130835 | 47 | 202 | 0.0 | 3.5 | 0.00 | 0.00 | 0.00 | 96 | 1012.4 |
| 20260507130112 | 47 | 359 | 0.9 | 2.6 | 0.00 | 0.00 | 0.00 | 95 | 1012.3 |
| 20260507125610 | 48 | 21 | 1.7 | 2.6 | 0.00 | 0.00 | 0.00 | 95 | 1012.2 |
| 20260507125111 | 48 | 120 | 1.7 | 4.3 | 0.00 | 0.00 | 0.00 | 94 | 1012.1 |
| 20260507124609 | 48 | 77 | 0.0 | 4.3 | 0.00 | 0.00 | 0.00 | 93 | 1012.3 |
| 20260507124111 | 48 | 62 | 4.3 | 4.3 | 0.00 | 0.00 | 0.00 | 94 | 1012.1 |
| 20260507123608 | 48 | 198 | 1.7 | 5.2 | 0.00 | 0.00 | 0.00 | 94 | 1012.0 |
| 20260507123330 | 48 | 113 | 0.9 | 5.2 | 0.00 | 0.00 | 0.00 | 95 | 1011.9 |
| 20260507122607 | 48 | 74 | 2.6 | 4.3 | 0.00 | 0.00 | 0.00 | 95 | 1011.9 |
| 20260507122107 | 48 | 79 | 1.7 | 4.3 | 0.00 | 0.00 | 0.00 | 96 | 1011.8 |
| 20260507121605 | 47 | 82 | 0.0 | 5.2 | 0.00 | 0.00 | 0.00 | 95 | 1011.8 |
| 20260507121106 | 47 | 89 | 1.7 | 5.2 | 0.00 | 0.00 | 0.00 | 95 | 1011.7 |
| 20260507120829 | 47 | 129 | 0.9 | 5.2 | 0.00 | 0.00 | 0.00 | 96 | 1011.8 |
| 20260507120105 | 47 | 130 | 1.7 | 5.2 | 0.00 | 0.00 | 0.00 | 96 | 1011.6 |
| 20260507115603 | 47 | 50 | 0.0 | 4.3 | 0.00 | 0.00 | 0.00 | 95 | 1011.4 |
| 20260507115105 | 48 | 74 | 0.0 | 3.5 | 0.00 | 0.00 | 0.00 | 96 | 1011.4 |
| 20260507114603 | 48 | 100 | 1.7 | 3.5 | 0.00 | 0.00 | 0.00 | 96 | 1011.7 |
| 20260507114103 | 48 | 147 | 1.7 | 5.2 | 0.00 | 0.00 | 0.00 | 96 | 1011.5 |
| 20260507113601 | 47 | 89 | 1.7 | 6.1 | 0.00 | 0.00 | 0.00 | 96 | 1011.4 |
| 20260507113103 | 48 | 59 | 1.7 | 6.1 | 0.00 | 0.00 | 0.00 | 96 | 1011.5 |
| 20260507112601 | 48 | 77 | 0.9 | 5.2 | 0.00 | 0.00 | 0.00 | 95 | 1011.5 |
| 20260507112101 | 48 | 76 | 2.6 | 5.2 | 0.00 | 0.00 | 0.00 | 96 | 1011.2 |
| 20260507111559 | 48 | 294 | 1.7 | 5.2 | 0.00 | 0.00 | 0.00 | 96 | 1011.1 |
| 20260507111103 | 48 | 105 | 2.6 | 4.3 | 0.00 | 0.00 | 0.00 | 96 | 1011.1 |
| 20260507110819 | 48 | 93 | 1.7 | 4.3 | 0.00 | 0.00 | 0.00 | 96 | 1011.0 |
| 20260507105556 | 48 | 110 | 0.0 | 7.0 | 0.00 | 0.00 | 0.00 | 97 | 1011.4 |
| 20260507105058 | 48 | 151 | 0.0 | 7.0 | 0.00 | 0.00 | 0.00 | 97 | 1011.0 |
| 20260507104555 | 48 | 31 | 0.0 | 2.6 | 0.00 | 0.00 | 0.00 | 97 | 1010.8 |
| 20260507104056 | 48 | 66 | 2.6 | 8.7 | 0.00 | 0.00 | 0.00 | 97 | 1011.1 |
| 20260507103555 | 47 | 147 | 1.7 | 8.7 | 0.00 | 0.00 | 0.00 | 96 | 1010.8 |
| 20260507103055 | 47 | 95 | 1.7 | 5.2 | 0.00 | 0.00 | 0.00 | 97 | 1010.7 |
| 20260507102554 | 47 | 107 | 1.7 | 5.2 | 0.00 | 0.00 | 0.00 | 97 | 1010.6 |
| 20260507102316 | 47 | 83 | 2.6 | 7.8 | 0.00 | 0.00 | 0.00 | 97 | 1010.7 |
| 20260507101553 | 47 | 67 | 2.6 | 7.8 | 0.00 | 0.00 | 0.00 | 97 | 1010.6 |
| 20260507101052 | 47 | 106 | 1.7 | 4.3 | 0.00 | 0.00 | 0.00 | 98 | 1010.2 |
| 20260507100551 | 47 | 95 | 1.7 | 7.8 | 0.00 | 0.00 | 0.00 | 98 | 1010.3 |
| 20260507100052 | 47 | 160 | 2.6 | 7.8 | 0.00 | 0.00 | 0.00 | 98 | 1010.2 |
| 20260507095549 | 47 | 115 | 3.5 | 6.1 | 0.00 | 0.00 | 0.00 | 97 | 1010.3 |
| 20260507095054 | 47 | 69 | 2.6 | 6.1 | 0.00 | 0.00 | 0.00 | 97 | 1010.1 |
| 20260507094548 | 47 | 46 | 1.7 | 6.1 | 0.00 | 0.00 | 0.00 | 97 | 1010.1 |
| 20260507094053 | 47 | 131 | 6.1 | 6.1 | 0.00 | 0.00 | 0.00 | 97 | 1010.3 |
| 20260507093547 | 47 | 53 | 2.6 | 6.1 | 0.00 | 0.00 | 0.00 | 97 | 1009.9 |
| 20260507093051 | 47 | 82 | 0.9 | 11.3 | 0.00 | 0.00 | 0.00 | 97 | 1010.0 |
| 20260507092809 | 47 | 71 | 3.5 | 11.3 | 0.00 | 0.00 | 0.00 | 97 | 1009.7 |
| 20260507092048 | 47 | 111 | 1.7 | 8.7 | 0.00 | 0.00 | 0.00 | 96 | 1009.7 |
| 20260507091545 | 47 | 79 | 3.5 | 8.7 | 0.00 | 0.00 | 0.00 | 96 | 1009.8 |
| 20260507091311 | 48 | 73 | 1.7 | 7.8 | 0.00 | 0.00 | 0.00 | 96 | 1009.6 |
| 20260507090545 | 48 | 135 | 1.7 | 7.8 | 0.00 | 0.00 | 0.00 | 96 | 1009.5 |
| 20260507090048 | 48 | 39 | 1.7 | 7.8 | 0.00 | 0.00 | 0.00 | 96 | 1009.5 |
| 20260507085804 | 48 | 97 | 3.5 | 7.8 | 0.00 | 0.00 | 0.00 | 95 | 1009.2 |
| 20260507085044 | 48 | 117 | 4.3 | 7.8 | 0.00 | 0.00 | 0.00 | 96 | 1009.4 |
| 20260507084542 | 49 | 42 | 7.0 | 7.8 | 0.00 | 0.00 | 0.00 | 96 | 1009.3 |
| 20260507084042 | 48 | 118 | 3.5 | 7.0 | 0.00 | 0.00 | 0.00 | 96 | 1008.9 |
| 20260507083541 | 48 | 152 | 1.7 | 6.1 | 0.00 | 0.00 | 0.00 | 96 | 1009.0 |
| 20260507083309 | 48 | 74 | 1.7 | 10.4 | 0.00 | 0.00 | 0.00 | 96 | 1009.2 |
| 20260507082539 | 48 | 62 | 2.6 | 10.4 | 0.00 | 0.00 | 0.00 | 95 | 1009.1 |
| 20260507082041 | 48 | 19 | 0.9 | 9.6 | 0.00 | 0.00 | 0.00 | 95 | 1009.2 |
| 20260507081538 | 48 | 130 | 7.0 | 8.7 | 0.00 | 0.00 | 0.00 | 96 | 1008.9 |
| 20260507081043 | 47 | 98 | 2.6 | 6.1 | 0.00 | 0.00 | 0.00 | 96 | 1008.9 |
| 20260507080537 | 47 | 110 | 3.5 | 7.8 | 0.00 | 0.00 | 0.00 | 96 | 1008.9 |
| 20260507080302 | 47 | 64 | 6.1 | 9.6 | 0.00 | 0.00 | 0.00 | 96 | 1008.9 |
| 20260507075536 | 47 | 88 | 2.6 | 9.6 | 0.00 | 0.00 | 0.00 | 96 | 1008.9 |
| 20260507075037 | 47 | 111 | 1.7 | 7.0 | 0.00 | 0.00 | 0.00 | 97 | 1008.9 |
| 20260507074535 | 47 | 62 | 2.6 | 7.8 | 0.00 | 0.00 | 0.00 | 96 | 1008.9 |
| 20260507073534 | 47 | 72 | 2.6 | 9.6 | 0.00 | 0.00 | 0.00 | 96 | 1008.7 |
| 20260507073035 | 47 | 52 | 4.3 | 7.8 | 0.00 | 0.00 | 0.00 | 97 | 1008.6 |
| 20260507072753 | 47 | 65 | 3.5 | 7.8 | 0.00 | 0.00 | 0.00 | 97 | 1008.6 |
| 20260507072033 | 47 | 144 | 3.5 | 6.1 | 0.00 | 0.00 | 0.00 | 97 | 1008.5 |
| 20260507071750 | 47 | 81 | 3.5 | 7.0 | 0.00 | 0.00 | 0.00 | 97 | 1008.4 |
| 20260507071034 | 47 | 108 | 2.6 | 7.0 | 0.00 | 0.00 | 0.00 | 97 | 1008.5 |
| 20260507070749 | 47 | 82 | 4.3 | 7.8 | 0.00 | 0.00 | 0.00 | 97 | 1008.2 |
| 20260507070255 | 47 | 84 | 4.3 | 7.8 | 0.00 | 0.00 | 0.00 | 98 | 1008.5 |
| 20260507065529 | 47 | 130 | 2.6 | 7.0 | 0.00 | 0.00 | 0.00 | 98 | 1008.5 |
| 20260507065033 | 47 | 69 | 2.6 | 8.7 | 0.00 | 0.00 | 0.00 | 97 | 1008.3 |
| 20260507064528 | 47 | 117 | 3.5 | 8.7 | 0.00 | 0.00 | 0.00 | 98 | 1008.4 |
| 20260507064035 | 47 | 71 | 3.5 | 7.0 | 0.00 | 0.00 | 0.00 | 98 | 1008.3 |
| 20260507063527 | 47 | 84 | 2.6 | 4.3 | 0.00 | 0.00 | 0.00 | 98 | 1008.3 |
| 20260507063033 | 47 | 120 | 3.5 | 7.0 | 0.00 | 0.00 | 0.00 | 98 | 1008.3 |
| 20260507062526 | 47 | 106 | 2.6 | 7.0 | 0.00 | 0.00 | 0.00 | 98 | 1008.3 |
| 20260507062028 | 47 | 125 | 3.5 | 5.2 | 0.00 | 0.00 | 0.00 | 98 | 1008.2 |
| 20260507061522 | 47 | 96 | 3.5 | 5.2 | 0.00 | 0.00 | 0.00 | 98 | 1008.0 |
| 20260507061303 | 47 | 99 | 3.5 | 5.2 | 0.00 | 0.00 | 0.00 | 98 | 1008.0 |
| 20260507060521 | 47 | 120 | 3.5 | 5.2 | 0.00 | 0.00 | 0.00 | 98 | 1008.0 |
| 20260507060029 | 47 | 89 | 2.6 | 5.2 | 0.00 | 0.00 | 0.00 | 98 | 1007.7 |
| 20260507055523 | 47 | 110 | 1.7 | 6.1 | 0.00 | 0.00 | 0.00 | 98 | 1008.0 |
| 20260507055027 | 47 | 111 | 4.3 | 6.1 | 0.00 | 0.00 | 0.00 | 98 | 1007.8 |
| 20260507054518 | 48 | 124 | 4.3 | 5.2 | 0.00 | 0.00 | 0.00 | 98 | 1007.9 |
| 20260507054024 | 48 | 112 | 1.7 | 3.5 | 0.00 | 0.00 | 0.00 | 98 | 1007.7 |
| 20260507053517 | 48 | 106 | 0.9 | 3.5 | 0.00 | 0.00 | 0.00 | 98 | 1007.5 |
| 20260507053030 | 48 | 88 | 1.7 | 6.1 | 0.00 | 0.00 | 0.00 | 98 | 1007.5 |
| 20260507052516 | 48 | 68 | 4.3 | 6.1 | 0.00 | 0.00 | 0.00 | 98 | 1007.5 |
| 20260507052028 | 48 | 112 | 1.7 | 6.1 | 0.00 | 0.00 | 0.00 | 98 | 1007.5 |
| 20260507051735 | 48 | 123 | 2.6 | 6.1 | 0.00 | 0.00 | 0.00 | 98 | 1007.4 |
| 20260507051249 | 48 | 119 | 3.5 | 6.1 | 0.00 | 0.00 | 0.00 | 99 | 1007.5 |
| 20260507050514 | 48 | 120 | 2.6 | 6.1 | 0.00 | 0.00 | 0.00 | 99 | 1007.4 |
| 20260507050027 | 48 | 116 | 2.6 | 6.1 | 0.00 | 0.00 | 0.00 | 99 | 1007.2 |
| 20260507045738 | 49 | 42 | 3.5 | 6.1 | 0.00 | 0.00 | 0.00 | 99 | 1007.2 |
| 20260507045021 | 49 | 136 | 2.6 | 5.2 | 0.00 | 0.00 | 0.00 | 99 | 1007.2 |
| 20260507044512 | 49 | 91 | 2.6 | 4.3 | 0.00 | 0.00 | 0.00 | 99 | 1007.1 |
| 20260507044013 | 49 | 160 | 3.5 | 4.3 | 0.00 | 0.00 | 0.00 | 99 | 1006.8 |
| 20260507043510 | 49 | 142 | 3.5 | 5.2 | 0.00 | 0.00 | 0.00 | 99 | 1006.9 |
| 20260507043012 | 49 | 157 | 3.5 | 5.2 | 0.00 | 0.00 | 0.00 | 99 | 1006.8 |
| 20260507042513 | 49 | 91 | 3.5 | 5.2 | 0.00 | 0.00 | 0.00 | 99 | 1006.9 |
| 20260507042010 | 49 | 116 | 1.7 | 5.2 | 0.00 | 0.00 | 0.00 | 99 | 1006.7 |
| 20260507041732 | 49 | 126 | 1.7 | 5.2 | 0.00 | 0.00 | 0.00 | 99 | 1006.7 |
| 20260507041009 | 49 | 94 | 1.7 | 5.2 | 0.00 | 0.00 | 0.00 | 99 | 1006.8 |
| 20260507040510 | 49 | 104 | 3.5 | 4.3 | 0.00 | 0.00 | 0.00 | 99 | 1006.8 |
| 20260507040008 | 49 | 137 | 2.6 | 4.3 | 0.00 | 0.00 | 0.00 | 99 | 1006.7 |
| 20260507035506 | 49 | 137 | 2.6 | 3.5 | 0.00 | 0.00 | 0.00 | 99 | 1006.8 |
| 20260507035007 | 49 | 87 | 1.7 | 4.3 | 0.00 | 0.00 | 0.00 | 99 | 1006.8 |
| 20260507034728 | 49 | 124 | 1.7 | 4.3 | 0.00 | 0.00 | 0.00 | 98 | 1006.7 |
| 20260507034006 | 49 | 109 | 1.7 | 3.5 | 0.00 | 0.00 | 0.00 | 98 | 1006.8 |
| 20260507033504 | 49 | 121 | 1.7 | 3.5 | 0.00 | 0.00 | 0.00 | 99 | 1006.8 |
| 20260507033005 | 49 | 123 | 1.7 | 5.2 | 0.00 | 0.00 | 0.00 | 99 | 1006.8 |
| 20260507032503 | 49 | 141 | 3.5 | 5.2 | 0.00 | 0.00 | 0.00 | 99 | 1006.5 |
| 20260507032227 | 49 | 131 | 1.7 | 5.2 | 0.00 | 0.00 | 0.00 | 99 | 1006.5 |
| 20260507031502 | 49 | 123 | 3.5 | 7.0 | 0.00 | 0.00 | 0.00 | 99 | 1006.5 |
| 20260507031221 | 49 | 121 | 5.2 | 7.0 | 0.00 | 0.00 | 0.00 | 99 | 1006.6 |
| 20260507030501 | 49 | 131 | 3.5 | 7.0 | 0.00 | 0.00 | 0.00 | 99 | 1006.4 |
| 20260507030001 | 49 | 131 | 3.5 | 7.0 | 0.00 | 0.00 | 0.00 | 98 | 1006.6 |
| 20260507025500 | 49 | 120 | 3.5 | 3.5 | 0.00 | 0.00 | 0.00 | 98 | 1006.4 |
| 20260507025000 | 49 | 100 | 1.7 | 5.2 | 0.00 | 0.00 | 0.00 | 98 | 1006.2 |
| 20260507024459 | 49 | 150 | 2.6 | 5.2 | 0.00 | 0.00 | 0.00 | 98 | 1006.3 |
| 20260507023959 | 49 | 140 | 3.5 | 4.3 | 0.00 | 0.00 | 0.00 | 98 | 1006.4 |
| 20260507023723 | 49 | 127 | 2.6 | 5.2 | 0.00 | 0.00 | 0.00 | 98 | 1006.5 |
| 20260507022958 | 49 | 85 | 1.7 | 5.2 | 0.00 | 0.00 | 0.00 | 98 | 1006.4 |
| 20260507022456 | 49 | 154 | 1.7 | 5.2 | 0.00 | 0.00 | 0.00 | 98 | 1006.4 |
| 20260507021957 | 49 | 136 | 4.3 | 5.2 | 0.00 | 0.00 | 0.00 | 98 | 1006.5 |
| 20260507021455 | 49 | 212 | 1.7 | 5.2 | 0.00 | 0.00 | 0.00 | 99 | 1006.4 |
| 20260507020955 | 49 | 118 | 4.3 | 5.2 | 0.00 | 0.00 | 0.00 | 98 | 1006.3 |
| 20260507020453 | 49 | 232 | 1.7 | 3.5 | 0.00 | 0.00 | 0.00 | 98 | 1006.5 |
| 20260507015955 | 49 | 130 | 2.6 | 4.3 | 0.00 | 0.00 | 0.00 | 98 | 1006.4 |
| 20260507015453 | 49 | 85 | 2.6 | 4.3 | 0.00 | 0.00 | 0.00 | 98 | 1006.3 |
| 20260507014953 | 49 | 168 | 1.7 | 4.3 | 0.00 | 0.00 | 0.00 | 98 | 1006.2 |
| 20260507014451 | 49 | 161 | 1.7 | 4.3 | 0.00 | 0.00 | 0.00 | 98 | 1006.5 |
| 20260507013952 | 49 | 92 | 2.6 | 4.3 | 0.00 | 0.00 | 0.00 | 98 | 1006.4 |
| 20260507013451 | 49 | 176 | 1.7 | 4.3 | 0.00 | 0.00 | 0.00 | 98 | 1006.4 |
| 20260507012951 | 49 | 147 | 2.6 | 4.3 | 0.00 | 0.00 | 0.00 | 98 | 1006.3 |
| 20260507012711 | 49 | 165 | 0.0 | 4.3 | 0.00 | 0.00 | 0.00 | 98 | 1006.4 |
| 20260507011950 | 49 | 7 | 3.5 | 4.3 | 0.00 | 0.00 | 0.00 | 98 | 1006.4 |
| 20260507011448 | 49 | 200 | 2.6 | 5.2 | 0.00 | 0.00 | 0.00 | 98 | 1006.2 |
| 20260507011215 | 49 | 253 | 1.7 | 5.2 | 0.00 | 0.00 | 0.00 | 98 | 1006.4 |
| 20260507010447 | 49 | 150 | 2.6 | 5.2 | 0.00 | 0.00 | 0.00 | 98 | 1006.4 |
| 20260507005947 | 49 | 127 | 1.7 | 5.2 | 0.00 | 0.00 | 0.00 | 98 | 1006.3 |
| 20260507005445 | 49 | 194 | 1.7 | 4.3 | 0.00 | 0.00 | 0.00 | 98 | 1006.3 |
| 20260507004947 | 49 | 125 | 0.9 | 4.3 | 0.00 | 0.00 | 0.00 | 98 | 1006.3 |
| 20260507004444 | 49 | 50 | 4.3 | 4.3 | 0.00 | 0.00 | 0.00 | 98 | 1006.4 |
| 20260507003443 | 49 | 150 | 1.7 | 5.2 | 0.00 | 0.00 | 0.00 | 98 | 1006.4 |
| 20260507002945 | 49 | 165 | 2.6 | 5.2 | 0.00 | 0.00 | 0.00 | 98 | 1006.3 |
| 20260507002442 | 49 | 155 | 0.0 | 0.9 | 0.00 | 0.00 | 0.00 | 98 | 1006.4 |
| 20260507001943 | 49 | 160 | 0.9 | 0.9 | 0.00 | 0.00 | 0.00 | 98 | 1006.4 |
| 20260507001441 | 49 | 161 | 0.0 | 0.9 | 0.00 | 0.00 | 0.00 | 97 | 1006.3 |
| 20260507000942 | 49 | 142 | 0.0 | 1.7 | 0.00 | 0.00 | 0.00 | 97 | 1006.1 |
| 20260507000442 | 49 | 154 | 0.0 | 1.7 | 0.00 | 0.00 | 0.00 | 97 | 1006.2 |
| 20260506235941 | 49 | 166 | 0.9 | 1.7 | 0.00 | 0.00 | 0.00 | 97 | 1006.1 |
| 20260506235439 | 49 | 152 | 0.0 | 0.9 | 0.00 | 0.00 | 0.00 | 97 | 1006.0 |
| 20260506234940 | 49 | 149 | 0.0 | 0.9 | 0.00 | 0.00 | 0.00 | 97 | 1006.0 |
| 20260506233938 | 50 | 155 | 0.0 | 1.7 | 0.00 | 0.00 | 0.00 | 97 | 1005.9 |
| 20260506233436 | 50 | 144 | 0.0 | 1.7 | 0.00 | 0.00 | 0.00 | 96 | 1005.8 |
| 20260506232937 | 50 | 329 | 0.0 | 1.7 | 0.00 | 0.00 | 0.00 | 96 | 1005.9 |
| 20260506232436 | 50 | 124 | 0.0 | 1.7 | 0.00 | 0.00 | 0.00 | 95 | 1005.7 |
| 20260506231936 | 50 | 150 | 0.0 | 1.7 | 0.00 | 0.00 | 0.00 | 95 | 1005.7 |
| 20260506231434 | 50 | 157 | 0.9 | 1.7 | 0.00 | 0.00 | 0.00 | 95 | 1005.6 |
| 20260506230935 | 50 | 156 | 1.7 | 2.6 | 0.00 | 0.00 | 0.00 | 94 | 1005.7 |
| 20260506230433 | 50 | 148 | 1.7 | 4.3 | 0.00 | 0.00 | 0.00 | 94 | 1005.5 |
| 20260506230153 | 50 | 111 | 3.5 | 3.5 | 0.00 | 0.00 | 0.00 | 95 | 1005.4 |
| 20260506225654 | 50 | 97 | 1.7 | 3.5 | 0.00 | 0.00 | 0.00 | 94 | 1005.4 |
| 20260506224932 | 50 | 95 | 1.7 | 3.5 | 0.00 | 0.00 | 0.00 | 94 | 1005.3 |
| 20260506224434 | 50 | 82 | 0.9 | 5.2 | 0.00 | 0.00 | 0.00 | 94 | 1005.5 |
| 20260506224155 | 50 | 144 | 2.6 | 5.2 | 0.00 | 0.00 | 0.00 | 94 | 1005.5 |
| 20260506222930 | 50 | 168 | 0.9 | 4.3 | 0.00 | 0.00 | 0.00 | 93 | 1005.5 |
| 20260506222429 | 50 | 141 | 2.6 | 4.3 | 0.00 | 0.00 | 0.00 | 93 | 1005.3 |
| 20260506221929 | 50 | 118 | 3.5 | 4.3 | 0.00 | 0.00 | 0.00 | 93 | 1005.4 |
| 20260506221427 | 50 | 120 | 3.5 | 6.1 | 0.00 | 0.00 | 0.00 | 93 | 1005.6 |
| 20260506220928 | 50 | 122 | 4.3 | 6.1 | 0.00 | 0.00 | 0.00 | 93 | 1005.3 |
| 20260506220426 | 50 | 123 | 3.5 | 5.2 | 0.00 | 0.00 | 0.00 | 94 | 1005.4 |
| 20260506215927 | 50 | 139 | 2.6 | 5.2 | 0.00 | 0.00 | 0.00 | 95 | 1005.5 |
| 20260506215425 | 50 | 117 | 3.5 | 6.1 | 0.00 | 0.00 | 0.00 | 95 | 1005.7 |
| 20260506215146 | 50 | 139 | 2.6 | 6.1 | 0.00 | 0.00 | 0.00 | 95 | 1005.4 |
| 20260506214645 | 51 | 124 | 3.5 | 7.0 | 0.00 | 0.00 | 0.00 | 95 | 1005.5 |
| 20260506213423 | 50 | 137 | 2.6 | 4.3 | 0.00 | 0.00 | 0.00 | 96 | 1005.6 |
| 20260506212927 | 50 | 151 | 1.7 | 2.6 | 0.00 | 0.00 | 0.00 | 96 | 1005.7 |
| 20260506212644 | 50 | 168 | 1.7 | 3.5 | 0.00 | 0.00 | 0.00 | 95 | 1005.4 |
| 20260506211923 | 50 | 107 | 0.9 | 5.2 | 0.00 | 0.00 | 0.00 | 95 | 1005.2 |
| 20260506211420 | 50 | 109 | 1.7 | 7.8 | 0.00 | 0.00 | 0.00 | 95 | 1005.2 |
| 20260506210924 | 50 | 127 | 7.8 | 7.8 | 0.00 | 0.00 | 0.00 | 94 | 1005.2 |
| 20260506210419 | 50 | 60 | 2.6 | 7.0 | 0.00 | 0.00 | 0.00 | 93 | 1005.3 |
| 20260506205921 | 50 | 116 | 4.3 | 7.8 | 0.00 | 0.00 | 0.00 | 93 | 1005.2 |
| 20260506205418 | 50 | 126 | 7.8 | 7.8 | 0.00 | 0.00 | 0.00 | 94 | 1005.6 |
| 20260506204417 | 51 | 95 | 2.6 | 7.8 | 0.00 | 0.00 | 0.00 | 94 | 1005.2 |
| 20260506203920 | 51 | 157 | 0.9 | 9.6 | 0.00 | 0.00 | 0.00 | 94 | 1005.4 |
| 20260506202918 | 52 | 72 | 3.5 | 5.2 | 0.00 | 0.00 | 0.00 | 93 | 1005.6 |
| 20260506202641 | 53 | 341 | 1.7 | 3.5 | 0.00 | 0.00 | 0.00 | 92 | 1005.8 |
| 20260506202133 | 53 | 348 | 1.7 | 2.6 | 0.00 | 0.00 | 0.00 | 91 | 1005.7 |
| 20260506201414 | 53 | 83 | 0.9 | 3.5 | 0.00 | 0.00 | 0.00 | 91 | 1005.5 |
| 20260506200917 | 54 | 49 | 1.7 | 4.3 | 0.00 | 0.00 | 0.00 | 91 | 1005.3 |
| 20260506200412 | 54 | 324 | 2.6 | 4.3 | 0.00 | 0.00 | 0.00 | 91 | 1005.3 |
| 20260506195916 | 54 | 351 | 2.6 | 3.5 | 0.00 | 0.00 | 0.00 | 92 | 1005.2 |
| 20260506195414 | 54 | 337 | 0.0 | 3.5 | 0.00 | 0.00 | 0.00 | 92 | 1005.1 |
| 20260506194410 | 54 | 103 | 0.0 | 3.5 | 0.00 | 0.00 | 0.00 | 90 | 1004.8 |
| 20260506193911 | 54 | 107 | 1.7 | 3.5 | 0.00 | 0.00 | 0.00 | 90 | 1004.7 |
| 20260506193632 | 54 | 101 | 1.7 | 2.6 | 0.00 | 0.00 | 0.00 | 89 | 1004.5 |
| 20260506193128 | 55 | 107 | 0.0 | 2.6 | 0.00 | 0.00 | 0.00 | 88 | 1004.4 |
| 20260506192408 | 55 | 119 | 0.9 | 3.5 | 0.00 | 0.00 | 0.00 | 87 | 1004.4 |
| 20260506191909 | 55 | 138 | 0.0 | 6.1 | 0.00 | 0.00 | 0.00 | 87 | 1004.5 |
| 20260506191407 | 55 | 142 | 1.7 | 6.1 | 0.00 | 0.00 | 0.00 | 87 | 1004.5 |
| 20260506190908 | 55 | 63 | 2.6 | 6.1 | 0.00 | 0.00 | 0.00 | 87 | 1004.3 |
| 20260506190406 | 55 | 111 | 2.6 | 5.2 | 0.00 | 0.00 | 0.00 | 87 | 1004.2 |
| 20260506185907 | 55 | 79 | 1.7 | 5.2 | 0.00 | 0.00 | 0.00 | 87 | 1003.9 |
| 20260506185405 | 55 | 103 | 1.7 | 5.2 | 0.00 | 0.00 | 0.00 | 87 | 1003.8 |
| 20260506184906 | 55 | 89 | 1.7 | 6.1 | 0.00 | 0.00 | 0.00 | 87 | 1003.8 |
| 20260506184404 | 55 | 98 | 1.7 | 6.1 | 0.00 | 0.00 | 0.00 | 86 | 1003.6 |
| 20260506183905 | 56 | 103 | 2.6 | 7.0 | 0.00 | 0.00 | 0.00 | 86 | 1003.6 |
| 20260506183402 | 56 | 116 | 5.2 | 7.0 | 0.00 | 0.00 | 0.00 | 85 | 1003.5 |
| 20260506182904 | 56 | 64 | 5.2 | 8.7 | 0.00 | 0.00 | 0.00 | 84 | 1003.4 |
| 20260506182401 | 56 | 113 | 3.5 | 8.7 | 0.00 | 0.00 | 0.00 | 84 | 1003.5 |
| 20260506182126 | 56 | 149 | 4.3 | 7.8 | 0.00 | 0.00 | 0.00 | 84 | 1003.6 |
| 20260506181400 | 57 | 126 | 1.7 | 7.8 | 0.00 | 0.00 | 0.00 | 84 | 1003.5 |
| 20260506180902 | 57 | 54 | 5.2 | 7.8 | 0.00 | 0.00 | 0.00 | 83 | 1003.6 |
| 20260506180359 | 57 | 110 | 3.5 | 7.8 | 0.00 | 0.00 | 0.00 | 82 | 1003.6 |
| 20260506175900 | 58 | 57 | 4.3 | 8.7 | 0.00 | 0.00 | 0.00 | 82 | 1003.5 |
| 20260506175358 | 58 | 47 | 1.7 | 8.7 | 0.00 | 0.00 | 0.00 | 81 | 1003.5 |
| 20260506174900 | 58 | 86 | 1.7 | 6.1 | 0.00 | 0.00 | 0.00 | 80 | 1003.3 |
| 20260506174357 | 59 | 61 | 3.5 | 6.1 | 0.00 | 0.00 | 0.00 | 79 | 1003.2 |
| 20260506173858 | 59 | 27 | 5.2 | 5.2 | 0.00 | 0.00 | 0.00 | 78 | 1003.4 |
| 20260506173359 | 60 | 74 | 4.3 | 5.2 | 0.00 | 0.00 | 0.00 | 75 | 1003.3 |
| 20260506172857 | 62 | 114 | 3.5 | 4.3 | 0.00 | 0.00 | 0.00 | 69 | 1003.2 |
| 20260506172354 | 63 | 117 | 0.9 | 1.7 | 0.00 | 0.00 | 0.00 | 62 | 1003.1 |
| 20260506172117 | 64 | 169 | 0.0 | 1.7 | 0.00 | 0.00 | 0.00 | 60 | 1003.1 |
| 20260506171356 | 64 | 156 | 0.0 | 1.7 | 0.00 | 0.00 | 0.00 | 60 | 1002.9 |
| 20260506171120 | 64 | 147 | 0.0 | 1.7 | 0.00 | 0.00 | 0.00 | 57 | 1002.9 |
| 20260506170355 | 65 | 328 | 0.0 | 1.7 | 0.00 | 0.00 | 0.00 | 54 | 1003.0 |
| 20260506165857 | 67 | 154 | 0.0 | 1.7 | 0.00 | 0.00 | 0.00 | 49 | 1003.1 |
| 20260506165354 | 67 | 108 | 1.7 | 1.7 | 0.00 | 0.00 | 0.00 | 46 | 1002.9 |
| 20260506164853 | 67 | 231 | 1.7 | 4.3 | 0.00 | 0.00 | 0.00 | 50 | 1002.8 |
| 20260506163851 | 67 | 167 | 1.7 | 2.6 | 0.00 | 0.00 | 0.00 | 46 | 1003.0 |
| 20260506163617 | 67 | 176 | 1.7 | 3.5 | 0.00 | 0.00 | 0.00 | 46 | 1002.9 |
| 20260506163108 | 67 | 161 | 0.9 | 3.5 | 0.00 | 0.00 | 0.00 | 49 | 1003.1 |
| 20260506162348 | 67 | 123 | 1.7 | 4.3 | 0.00 | 0.00 | 0.00 | 50 | 1003.0 |
| 20260506161849 | 66 | 121 | 1.7 | 4.3 | 0.00 | 0.00 | 0.00 | 51 | 1003.0 |
| 20260506161346 | 66 | 19 | 1.7 | 2.6 | 0.00 | 0.00 | 0.00 | 50 | 1003.1 |
| 20260506160848 | 66 | 175 | 0.9 | 3.5 | 0.00 | 0.00 | 0.00 | 49 | 1003.1 |
| 20260506160349 | 66 | 169 | 0.0 | 3.5 | 0.00 | 0.00 | 0.00 | 51 | 1003.0 |
| 20260506155846 | 65 | 241 | 0.9 | 2.6 | 0.00 | 0.00 | 0.00 | 51 | 1003.1 |
| 20260506155345 | 66 | 259 | 0.0 | 5.2 | 0.00 | 0.00 | 0.00 | 50 | 1003.3 |
| 20260506154845 | 66 | 164 | 1.7 | 5.2 | 0.00 | 0.00 | 0.00 | 51 | 1003.2 |
| 20260506154606 | 66 | 147 | 0.0 | 4.3 | 0.00 | 0.00 | 0.00 | 49 | 1003.2 |
| 20260506153844 | 66 | 182 | 0.9 | 4.3 | 0.00 | 0.00 | 0.00 | 50 | 1003.2 |
| 20260506153610 | 67 | 182 | 0.9 | 3.5 | 0.00 | 0.00 | 0.00 | 49 | 1003.4 |
| 20260506152843 | 67 | 159 | 1.7 | 5.2 | 0.00 | 0.00 | 0.00 | 48 | 1003.5 |
| 20260506152344 | 68 | 121 | 2.6 | 5.2 | 0.00 | 0.00 | 0.00 | 50 | 1003.5 |